Theta_e
319 319 320 320 320 320 319 320 320 321 322 323 323 324 325 325 323 317 308 314 317 335 329 315 313 312 312 308 307 305 297 298 306 313 315 320 309 310 315 316 317 319 321 324 328
318 318 319 319 319 319 319 319 319 320 321 322 323 324 324 324 315 312 324 335 340 339 310 309 308 310 304 304 304 301 297 301 312 317 315 317 317 310 311 314 315 319 324 327 327
318 318 318 318 318 318 318 319 319 320 321 321 323 323 324 322 315 315 337 340 341 332 312 311 311 307 301 302 303 303 301 307 316 318 320 318 318 315 311 310 316 317 321 323 323
317 317 317 317 317 318 318 318 319 319 319 320 323 323 323 319 305 311 342 341 340 317 312 311 308 300 298 299 304 299 306 308 311 323 318 316 321 313 314 314 320 322 323 323 321
316 316 316 317 317 317 317 317 318 318 318 320 323 323 318 314 316 327 340 337 316 311 311 309 305 301 299 302 304 301 306 309 310 314 318 322 319 315 311 318 321 322 322 321 319
316 315 316 316 316 316 316 316 316 317 318 322 322 322 316 308 318 324 317 314 312 310 310 310 308 307 304 304 302 306 306 307 306 309 317 317 317 317 314 319 319 319 319 318 318
315 315 315 315 315 316 316 316 315 316 318 324 322 321 314 310 319 317 314 310 312 314 311 312 311 307 307 304 308 308 303 306 306 309 312 319 311 313 314 317 316 317 318 318 318
314 314 314 314 315 315 316 315 315 317 320 325 323 319 311 322 323 316 315 314 314 314 313 314 313 307 304 307 307 303 301 299 307 309 315 314 304 316 317 315 313 315 316 317 317
314 313 313 314 315 315 314 314 316 319 323 325 317 314 311 325 322 321 318 316 314 313 314 319 309 304 306 300 297 301 297 299 303 311 315 312 307 315 320 318 313 314 315 317 316
313 313 312 313 314 314 313 314 321 322 323 324 322 311 317 316 321 322 319 317 313 312 310 307 303 299 298 295 290 295 298 300 301 309 314 311 311 315 318 318 316 314 315 316 316
313 312 312 313 313 312 309 308 306 311 312 312 314 312 316 320 321 318 320 313 311 307 300 304 297 294 298 300 301 301 300 300 304 313 312 312 312 315 316 316 315 315 314 315 316
313 312 312 312 312 312 309 310 305 305 300 308 308 308 312 313 309 316 318 307 305 299 302 299 295 302 305 305 303 302 299 299 304 313 311 310 311 313 317 315 318 316 318 315 316
311 312 312 312 311 312 311 311 310 309 301 307 310 309 309 310 308 310 314 310 304 300 300 297 301 308 305 302 302 299 298 299 299 305 312 309 307 311 317 316 317 318 319 320 317
311 311 311 310 311 310 310 313 311 311 297 306 309 311 310 309 306 314 314 311 305 300 302 300 306 306 303 302 302 295 304 304 303 299 300 310 299 307 313 315 315 317 313 319 320
311 311 311 309 305 308 314 318 313 309 292 310 309 315 311 306 308 308 314 312 305 304 302 300 302 301 300 303 305 300 304 301 301 297 294 297 297 302 306 304 306 307 310 314 322
310 310 309 311 307 313 317 316 310 296 294 307 311 308 304 306 308 309 309 312 311 305 305 303 308 305 303 306 305 306 301 299 297 294 290 295 295 295 299 302 305 308 310 311 313
310 309 306 309 307 316 316 310 295 291 309 305 307 309 304 303 304 306 306 303 299 293 295 301 303 306 309 302 304 300 297 288 287 287 288 297 295 295 303 307 307 309 310 312 313
308 307 310 312 315 317 312 302 290 301 303 307 307 307 303 306 304 305 304 301 304 302 297 295 295 304 309 303 299 298 295 288 285 287 290 298 294 298 306 309 309 310 311 312 312
306 311 313 318 317 317 305 293 295 302 305 303 304 301 301 304 304 304 302 302 304 305 298 296 298 309 310 309 305 298 294 298 292 292 290 293 298 303 308 311 311 309 310 310 312
302 307 313 321 321 314 301 296 300 305 305 305 297 301 297 300 300 300 301 306 306 308 307 302 298 308 309 309 305 301 303 292 293 286 285 292 294 296 306 307 309 307 307 309 313
306 308 318 320 318 307 296 298 303 308 309 303 299 298 299 298 299 298 301 306 309 308 308 302 300 301 305 302 301 300 296 296 295 294 289 289 293 303 303 308 309 307 309 309 311
306 301 318 318 304 306 300 305 306 309 310 307 305 302 300 301 299 299 300 303 308 307 304 307 302 296 300 306 308 304 301 299 293 291 294 293 294 307 307 308 309 310 315 313 313
300 305 315 315 296 299 306 306 309 310 309 308 306 306 306 302 297 302 303 309 309 307 305 305 300 294 296 300 303 301 304 302 300 297 292 291 293 309 311 307 311 311 312 315 316
301 301 308 310 307 303 302 304 305 311 309 309 308 308 306 302 302 300 302 309 312 310 317 311 300 298 294 298 303 301 305 304 299 294 295 297 298 303 306 307 309 311 312 312 316
304 304 307 299 303 302 304 305 303 300 305 306 305 306 304 300 303 300 302 304 307 314 308 308 299 301 301 303 303 302 302 303 300 300 298 300 299 301 304 306 308 310 315 313 312
302 302 304 300 303 301 300 300 299 301 302 302 302 304 303 299 301 298 300 300 300 304 303 305 298 303 301 305 301 299 301 302 303 304 303 303 302 308 312 310 309 310 313 313 313
308 309 304 300 299 297 297 300 301 303 306 306 303 301 300 302 303 302 303 304 303 300 299 301 300 297 294 303 301 297 303 301 302 304 303 299 303 308 309 309 310 309 310 313 314
Wind_Speed
22 22 21 21 20 19 19 18 18 17 16 15 13 11 10 10 12 3 7 12 9 9 5 6 7 10 10 7 7 4 2 11 7 18 16 11 9 5 10 14 5 1 17 13 12
22 22 21 21 21 20 19 18 19 18 16 14 12 10 8 7 4 9 15 8 9 10 4 8 8 11 6 7 5 6 4 10 3 11 11 5 5 12 9 15 16 19 13 15 11
22 22 22 22 23 21 21 20 18 18 16 15 12 8 6 6 4 9 17 13 9 7 4 7 10 5 7 7 8 9 11 12 7 9 13 19 17 10 16 13 20 23 20 14 7
22 22 23 23 24 23 22 21 19 19 18 15 10 6 4 4 2 1 8 10 8 6 4 7 8 5 5 8 9 6 12 9 4 14 12 11 12 9 14 14 22 20 20 15 11
22 23 24 23 23 23 22 22 21 19 17 14 6 3 3 3 10 6 9 8 6 4 6 9 8 6 7 6 8 6 10 11 1 8 12 5 5 9 14 23 22 20 18 14 11
22 23 24 24 24 23 22 22 21 18 15 12 2 3 2 6 3 13 10 6 8 6 9 10 10 9 6 7 4 8 10 13 1 4 8 8 4 9 18 23 23 20 16 12 11
23 23 23 24 26 24 23 22 21 19 14 8 2 5 5 14 9 12 12 7 7 9 11 11 9 6 8 11 9 10 9 3 6 4 7 7 4 8 21 22 22 19 16 13 12
24 24 24 24 26 26 25 24 22 18 10 4 2 5 8 9 8 9 10 9 10 11 11 11 8 5 4 8 10 8 4 2 10 8 6 10 5 2 17 19 18 17 16 15 12
25 25 26 26 27 26 25 29 20 11 6 3 3 3 10 5 6 6 10 9 10 10 8 8 4 4 9 5 7 6 4 6 12 10 7 8 4 6 12 16 18 18 17 17 15
25 26 26 27 28 26 29 25 3 3 4 7 7 5 7 9 8 10 7 8 7 7 6 5 2 4 6 0 6 10 6 8 10 14 9 7 5 4 11 10 18 20 19 19 18
26 27 28 28 30 22 18 7 6 3 3 9 7 6 17 9 3 4 9 6 6 5 6 9 3 7 14 12 13 8 8 9 9 4 7 12 9 18 13 10 11 20 19 18 21
25 27 30 31 31 29 3 5 4 8 13 12 20 19 21 16 12 6 5 7 6 8 8 7 7 13 12 13 11 14 7 8 10 3 6 11 21 8 14 12 21 14 18 21 19
25 26 28 33 34 8 7 8 7 8 5 14 15 13 15 10 15 6 9 8 8 6 10 9 12 14 16 11 10 8 4 5 9 8 7 10 6 5 7 10 14 15 19 21 23
24 25 25 32 7 8 6 9 8 5 3 8 7 8 11 9 9 10 8 10 7 9 11 9 13 14 13 7 8 7 8 7 11 8 5 15 3 8 21 26 17 18 10 18 20
24 24 24 11 8 6 9 15 10 5 6 10 6 5 8 10 2 7 11 7 9 10 7 12 9 10 9 7 5 9 6 7 6 8 5 8 1 8 10 9 11 10 11 11 22
26 24 22 2 4 11 16 13 5 2 7 5 7 8 6 8 13 4 7 6 9 9 13 10 10 6 7 7 8 8 6 9 7 2 7 7 6 6 6 6 6 9 10 10 11
29 31 12 6 6 9 12 6 3 3 9 2 3 9 10 11 10 7 11 7 6 3 7 10 13 14 9 7 7 3 2 5 6 5 7 7 7 9 8 10 9 12 13 12 5
31 33 6 8 8 8 3 3 3 10 9 17 11 2 6 6 11 10 8 7 10 10 7 6 11 10 14 12 12 9 10 7 8 3 7 7 11 12 9 11 11 11 6 7 8
30 4 5 6 12 6 3 1 6 5 15 12 12 8 7 8 7 6 9 10 10 12 10 6 12 13 11 9 12 8 6 10 6 5 5 6 11 9 10 14 21 10 8 6 8
7 5 6 6 8 3 1 5 6 9 15 13 7 7 9 15 12 12 7 6 6 8 7 9 6 9 13 8 3 11 8 2 3 5 8 6 8 8 8 11 1 5 7 7 6
3 4 2 8 5 1 3 6 9 17 12 7 6 7 10 11 13 13 7 17 11 10 10 8 6 6 5 3 5 5 2 3 6 6 7 4 8 9 4 5 9 2 6 6 7
5 4 4 2 1 3 5 6 9 17 9 6 6 5 6 7 11 9 12 9 16 12 8 3 1 1 8 7 6 5 7 8 6 8 5 6 9 10 6 8 6 9 2 6 7
5 5 6 4 3 4 7 11 16 14 2 6 4 8 8 6 7 7 10 12 16 12 4 3 4 4 7 7 7 4 7 6 4 4 9 10 9 8 4 4 4 9 2 13 8
4 5 3 2 4 5 7 8 9 13 11 10 5 5 9 8 8 8 13 11 17 18 13 6 3 8 6 6 7 9 10 9 3 4 6 10 10 9 11 8 8 9 11 7 8
4 5 5 4 4 8 8 9 11 11 7 11 8 9 8 5 7 8 11 14 18 13 12 6 3 6 7 7 12 18 20 18 15 11 8 9 10 8 10 13 12 10 9 10 8
3 5 6 8 8 8 6 4 10 12 8 6 7 11 8 4 7 8 8 6 5 14 9 5 4 8 6 10 15 22 24 22 13 16 17 14 17 12 24 14 12 10 8 9 9
5 5 3 6 7 6 5 7 9 7 5 8 13 10 11 10 13 5 6 6 7 7 9 5 3 7 4 11 18 15 12 14 19 16 17 17 18 12 17 10 8 10 10 8 10
Wind_Direction
351 348 344 341 339 335 334 335 334 328 322 315 313 310 313 312 304 219 244 221 193 188 164 254 204 224 234 249 260 268 290 254 208 162 203 248 81 60 109 126 162 285 130 146 155
350 345 340 338 334 332 332 333 332 326 321 316 315 306 311 323 267 243 245 217 165 152 203 241 252 222 220 250 231 160 209 247 215 179 168 105 14 129 107 109 111 115 120 139 150
347 344 339 336 333 331 332 331 330 327 322 319 315 301 301 301 292 238 200 175 167 166 253 282 281 248 241 236 239 244 241 264 106 126 157 146 201 181 126 128 141 142 144 156 158
346 342 338 333 332 330 329 328 326 325 323 318 309 287 300 243 353 136 109 140 156 198 246 274 276 284 287 259 258 245 262 250 169 155 154 174 213 152 156 160 146 148 151 155 165
342 340 337 332 330 328 326 324 322 322 322 319 321 250 244 251 248 148 142 158 165 167 234 251 275 251 246 251 276 266 260 275 203 99 162 187 130 163 129 138 141 147 154 162 170
340 339 337 331 327 326 324 321 318 316 318 316 301 162 227 259 160 144 159 169 187 196 241 243 243 250 285 296 302 270 277 262 144 268 160 163 204 116 139 139 144 153 160 169 177
338 336 334 329 324 325 323 318 312 308 309 305 242 248 263 244 144 169 163 189 220 211 238 259 260 21 328 326 277 312 315 292 313 255 180 161 154 156 150 144 148 157 161 174 187
336 333 331 328 323 323 322 315 306 299 292 270 214 262 252 256 245 195 186 194 216 240 248 278 359 353 301 288 322 320 329 1 285 254 227 117 190 154 133 144 153 166 170 175 190
334 331 331 329 324 323 321 309 302 286 222 170 211 212 269 284 223 212 178 192 202 238 265 286 30 284 319 288 328 306 268 274 275 251 198 122 144 243 129 141 166 182 181 179 192
335 331 329 329 323 328 323 302 279 295 217 202 252 304 270 246 210 222 199 218 194 219 252 255 267 231 301 188 233 254 229 245 226 265 177 121 3 333 168 170 185 184 186 183 189
335 331 330 328 322 329 340 349 356 16 235 257 225 250 292 266 145 218 168 198 250 182 226 251 183 237 240 236 234 253 263 272 276 286 112 147 172 263 220 209 178 194 189 190 190
334 333 329 327 320 319 254 302 5 236 299 245 253 261 270 281 281 201 211 177 230 220 223 285 225 241 249 259 246 254 274 309 306 197 80 181 207 233 176 201 207 191 198 196 192
333 331 331 326 318 310 312 276 326 10 289 288 227 229 232 236 251 218 196 191 226 235 241 208 243 232 250 259 280 286 247 296 272 298 238 136 297 210 294 234 233 228 210 195 192
333 331 333 331 336 339 293 354 337 26 311 268 182 215 191 224 257 220 228 173 217 239 233 241 256 260 267 244 242 279 280 249 271 301 189 233 208 312 208 220 238 230 216 194 192
330 329 329 325 301 300 299 323 327 50 340 165 133 137 154 172 267 195 233 198 215 235 237 254 261 270 277 250 307 268 328 306 302 303 307 282 81 227 214 224 233 242 227 218 206
326 324 329 296 203 249 288 295 345 22 255 181 139 177 162 192 247 259 192 220 189 240 272 257 276 268 260 280 241 268 323 330 327 310 285 263 189 249 241 216 242 237 239 239 200
323 316 310 285 241 336 315 328 12 221 314 111 162 166 184 194 223 214 191 218 174 247 270 275 268 271 259 281 307 1 43 328 322 328 254 273 307 233 260 249 216 233 245 247 275
322 312 246 210 236 273 318 359 257 282 301 342 7 334 294 269 203 205 195 198 210 203 238 250 288 246 247 210 198 209 174 168 237 262 281 314 269 273 257 272 261 238 183 122 113
318 296 264 224 221 244 31 239 238 247 360 332 349 346 341 310 262 252 220 216 211 198 200 223 257 277 284 291 182 236 252 214 202 255 284 264 288 296 285 281 258 165 141 125 113
316 296 268 289 148 86 139 253 279 314 300 298 323 357 322 325 338 346 280 240 238 235 186 225 261 241 276 328 276 159 201 321 339 206 258 270 269 263 316 310 103 104 131 144 136
265 298 275 123 111 105 219 244 285 296 317 16 8 336 323 319 325 327 313 319 48 348 347 224 174 260 251 263 266 320 270 247 157 159 206 242 261 222 227 11 342 212 197 176 174
309 282 180 148 348 218 225 242 268 287 304 354 344 303 269 289 301 311 306 291 331 330 331 348 297 251 237 252 281 295 258 182 144 277 231 197 252 286 284 41 5 310 320 269 199
304 275 280 109 250 249 298 316 314 336 339 350 304 317 344 330 332 306 302 312 322 329 302 301 334 356 332 341 332 280 272 246 207 149 216 246 265 279 293 45 291 300 298 274 218
292 300 255 153 225 275 287 291 318 345 343 348 315 358 317 308 296 286 310 333 349 360 15 353 193 173 199 244 301 290 289 293 260 238 225 237 260 271 277 268 255 242 244 220 238
238 257 352 304 337 334 339 337 327 328 337 334 340 338 15 356 331 6 8 346 333 35 1 43 300 308 263 259 284 285 284 288 290 281 272 278 262 260 255 262 255 250 255 234 219
296 348 347 302 303 309 299 298 298 295 315 332 356 329 333 340 46 333 358 31 288 328 346 360 298 340 316 295 269 269 278 285 283 292 293 291 281 249 258 259 260 241 217 228 188
346 332 333 292 307 311 275 284 294 356 334 2 18 4 346 352 335 322 307 273 250 275 300 285 14 1 278 350 321 285 271 257 274 273 280 284 299 322 306 286 247 248 256 223 219